This is the latest recevied weather packets stored in our database for station/object G6UYG-13. If no packets are shown the sender has not sent any weather packets the latest 10 day(s).
| Time | Temp. | Humidity | Pressure | Rain* | Wind** | Luminosity | Snow |
|---|---|---|---|---|---|---|---|
| 1777549800 | 20.56° C | 36% | 1018.8 hPa | 0 mm | - | 795 W/m² | - |
| 1777549380 | 20.56° C | 37% | 1018.8 hPa | 0 mm | - | 793 W/m² | - |
| 1777548960 | 20° C | 36% | 1018.9 hPa | 0 mm | - | 793 W/m² | - |
| 1777548540 | 20° C | 35% | 1018.9 hPa | 0 mm | - | 786 W/m² | - |
| 1777548120 | 20° C | 38% | 1019 hPa | 0 mm | - | 782 W/m² | - |
| 1777547700 | 19.44° C | 37% | 1019.1 hPa | 0 mm | - | 784 W/m² | - |
| 1777547280 | 19.44° C | 38% | 1019.2 hPa | 0 mm | - | 775 W/m² | - |
| 1777546860 | 19.44° C | 39% | 1019.4 hPa | 0 mm | - | 772 W/m² | - |
| 1777546440 | 18.89° C | 39% | 1019.4 hPa | 0 mm | - | 765 W/m² | - |
| 1777546020 | 18.89° C | 39% | 1019.5 hPa | 0 mm | - | 758 W/m² | - |
| 1777545600 | 18.89° C | 41% | 1019.6 hPa | 0 mm | - | 751 W/m² | - |
| 1777545180 | 18.89° C | 43% | 1019.6 hPa | 0 mm | - | 744 W/m² | - |
| 1777544760 | 18.89° C | 43% | 1019.7 hPa | 0 mm | - | 735 W/m² | - |
| 1777544340 | 18.33° C | 45% | 1019.8 hPa | 0 mm | - | 728 W/m² | - |
| 1777543920 | 18.33° C | 47% | 1019.9 hPa | 0 mm | - | 715 W/m² | - |
| 1777543500 | 17.78° C | 48% | 1020 hPa | 0 mm | - | 698 W/m² | - |
| 1777543080 | 17.78° C | 48% | 1020.1 hPa | 0 mm | - | 693 W/m² | - |
| 1777542660 | 17.22° C | 49% | 1020.2 hPa | 0 mm | - | 686 W/m² | - |
| 1777542240 | 17.22° C | 49% | 1020.3 hPa | 0 mm | - | 670 W/m² | - |
| 1777541820 | 16.67° C | 52% | 1020.3 hPa | 0 mm | - | 657 W/m² | - |
| 1777541400 | 16.67° C | 51% | 1020.4 hPa | 0 mm | - | 645 W/m² | - |
| 1777540980 | 16.67° C | 52% | 1020.4 hPa | 0 mm | - | 633 W/m² | - |
| 1777540560 | 16.11° C | 54% | 1020.5 hPa | 0 mm | - | 619 W/m² | - |
| 1777540140 | 15.56° C | 55% | 1020.5 hPa | 0 mm | - | 603 W/m² | - |
| 1777539720 | 15.56° C | 56% | 1020.7 hPa | 0 mm | - | 589 W/m² | - |
* Rain latest hour (hover to see other rain measurements)
** Current wind speed in m/s (hover to see current wind gust speed)